TJS-3 (43874 NORAD) Tracking and Keplerian Element Data

This shows tracking and keplerian element data for the satellite.

Feedback or suggestion? Click here.




ElementValue
Catalog43874
NameTJS-3
Epoch Orbit32
Epoch Day16.70065709
Epoch Year2019
RAAN245.1666
Inclination0.0763
Eccentricity0.0002122
Argument of Perigee336.6915
Mean Anonmoly205.1557
Mean Motion1.00273515
Decay Rate6.8E-07
L11 43874U 18110A 19016.70065709 .00000068 00000-0 00000+0 0 9991
L22 43874 0.0763 245.1666 0002122 336.6915 205.1557 1.00273515 328

Live tracking and technical data element details for TJS-3 (NORAD 43874). TJS-3 can be tracked NOW for your location showing map with azimuth and elevation plus other details from your city location.

Track the satellite on the map from your city or location and see movement details for azimuth, elevation, latitude, longitude, range, height, and movement on the map or in text.







IsCatalogInMostPopularTable: catalog: 43874, numindb: 16
Update: records affected: 1



GetName: 43874 TJS-3

Hit Count: updated at: Thu, 17 Jan 2019 15:03:52 GMT